Regional Weather Roundup
Issued by NWS State College, PA

Home | Current Version | Previous Version | Text Only | Print | Product List | Glossary On
Versions: 1 2 3 4 5 6 7 8 9 10 11 12 13 14 15 16 17 18 19 20 21 22 23 24 25 26 27 28 29 30 31 32 33 34 35 36 37 38 39 40 41 42 43 44 45 46 47 48 49 50
000
ASUS41 KCTP 221003
RWRCTP

REGIONAL WEATHER ROUNDUP
NATIONAL WEATHER SERVICE STATE COLLEGE PA
600 AM EDT SUN OCT 22 2017

Note: "fair" indicates few or no clouds below 12,000 feet with no
significant weather and/or obstructions to visibility.

* = STATION THAT DOES NOT REPORT PRECIPITATION /E.G. RAIN...SNOW...ETC/
    THUNDER OR FOG.

PAZ002>004-007>009-013>016-020>023-029>032-221100-
WESTERN PENNSYLVANIA

CITY           SKY/WX    TMP DP  RH WIND       PRES   REMARKS
ERIE           CLEAR     57  48  72 S10       30.27R
MEADVILLE      CLEAR     53  48  83 CALM      30.30R
FRANKLIN*      CLEAR     46  44  93 CALM      30.32R
NEW CASTLE     FAIR      46  46 100 CALM      30.30R FOG
BEAVER COUNTY  NOT AVBL
BUTLER*        CLEAR     45  44  97 NE5       30.30R FOG
PITTSBURGH INT PTCLDY    50  48  93 CALM      30.29R
PITTSBURGH     CLEAR     54  49  83 SE7       30.29R HAZE
INDIANA*       CLEAR     48  46  93 CALM      30.34R
LATROBE        CLEAR     48  48 100 CALM      30.31S
WASHINGTON CO* CLEAR     47  45  93 CALM      30.31S
$$

PAZ004>006-010>012-017>019-024>028-033>037-041-042-045-046-049>053-221100-
CENTRAL PENNSYLVANIA

CITY           SKY/WX    TMP DP  RH WIND       PRES   REMARKS
BRADFORD       PTCLDY    42  40  92 SE5       30.34R
DUBOIS         CLEAR     53  41  63 E6        30.33R
CLEARFIELD     CLEAR     45  43  93 N5        30.35R
JOHNSTOWN      CLEAR     56  48  74 S5        30.34R
ALTOONA        CLEAR     48  43  82 CALM      30.35R
STATE COLLEGE  CLEAR     45  43  93 CALM      30.35S
WILLIAMSPORT   PTCLDY    44  42  93 CALM      30.37R
SELINSGROVE    CLEAR     41  41 100 CALM      30.39R
FT INDIANTOWN  CLEAR     42  42 100 CALM      30.38R
CAPITAL CITY   CLEAR     47  44  90 SE3       30.38R
HARRISBURG     PTCLDY    49  46  90 CALM      30.37R
YORK           NOT AVBL
$$

PAZ038>040-043-044-047-048-054-055-060>062-067>071-221100-
EASTERN PENNSYLVANIA

CITY           SKY/WX    TMP DP  RH WIND       PRES   REMARKS
SCRANTON       CLEAR     46  42  86 VRB3      30.38R
MOUNT POCONO   CLOUDY    40  38  93 NW5       30.39R
ALLENTOWN      CLEAR     43  40  89 CALM      30.39R
QUAKERTOWN*    SUNNY     41  39  93 CALM      30.39R
READING        CLEAR     45  45 100 CALM      30.38R
LANCASTER      CLEAR     48  46  93 CALM      30.38R
COATESVILLE    SUNNY     50  43  76 CALM      30.39R
POTTSTOWN      CLEAR     42  42 100 CALM      30.40R
BLUE BELL      CLEAR     39  39 100 CALM      30.39R
DOYLESTOWN     CLEAR     45  43  93 CALM      30.37R
WILLOW GROVE   NOT AVBL
NORTH PHILA    CLEAR     49  46  90 CALM      30.39R
PHILADELPHIA   CLOUDY    53  48  83 CALM      30.38R
$$



USA.gov is the U.S. government's official web portal to all federal, state and local government web resources and services.